Tracking 30995 objects as of 5-Jul-2025
HD Live streaming from Space Station
objects crossing your sky now

DELTA 1 DEB

Track DELTA 1 DEB now!
10-day predictions


NORAD ID: 21327
Int'l Code: 1975-052AV
Perigee: 1,093.4 km
Apogee: 1,524.0 km
Inclination: 99.7 °
Period: 111.6 minutes
Semi major axis: 7679 km
RCS: 0.2848 m2 (medium)
Launch date: June 12, 1975
Source: United States (US)
Launch site: AIR FORCE WESTERN TEST RANGE (AFWTR)

Note: This is SATELLITE DEBRIS
Your satellite tracking list
Your tracking list is empty




NASA's NSSDC Master Catalog

Two Line Element Set (TLE):
1 21327U 75052AV  25186.29341639  .00000066  00000-0  33879-3 0  9998
2 21327  99.7361 125.4736 0280322 305.3763 215.9857 12.89984229606434
Source of the keplerian elements: AFSPC